This is the latest recevied weather packets stored in our database for station/object EA3IK-1. If no packets are shown the sender has not sent any weather packets the latest 10 day(s).
| Time | Temp. | Humidity | Pressure | Rain* | Wind** | Luminosity | Snow |
|---|---|---|---|---|---|---|---|
| 1777905911 | 18.33° C | 54% | 1010.9 hPa | 0.25 mm | - | - | - |
| 1777905011 | 18.89° C | 52% | 1010.8 hPa | 0 mm | - | - | - |
| 1777904110 | 18.89° C | 53% | 1010.9 hPa | 0 mm | - | - | - |
| 1777903209 | 18.89° C | 56% | 1011.1 hPa | 0 mm | - | - | - |
| 1777902308 | 19.44° C | 59% | 1011 hPa | 0 mm | - | - | - |
| 1777901407 | 18.89° C | 57% | 1011 hPa | 0 mm | - | - | - |
| 1777900506 | 19.44° C | 55% | 1010.7 hPa | 0 mm | - | - | - |
| 1777899605 | 18.89° C | 48% | 1010.6 hPa | 0 mm | - | - | - |
| 1777898705 | 18.89° C | 49% | 1010.5 hPa | 0 mm | - | - | - |
| 1777897804 | 18.89° C | 48% | 1010.6 hPa | 0 mm | - | - | - |
| 1777896903 | 19.44° C | 52% | 1010.7 hPa | 0 mm | - | - | - |
| 1777896002 | 19.44° C | 57% | 1010.7 hPa | 0 mm | - | - | - |
| 1777895101 | 20° C | 58% | 1010.7 hPa | 0 mm | - | - | - |
| 1777894200 | 20° C | 61% | 1010.8 hPa | 0 mm | - | - | - |
| 1777893299 | 21.67° C | 66% | 1011 hPa | 0 mm | - | - | - |
| 1777892399 | 22.78° C | 66% | 1011.2 hPa | 0 mm | - | - | - |
| 1777891498 | 21.67° C | 67% | 1011.3 hPa | 0 mm | - | - | - |
| 1777890597 | 22.22° C | 66% | 1011.4 hPa | 0 mm | - | - | - |
| 1777889696 | 21.11° C | 66% | 1011.5 hPa | 0 mm | - | - | - |
| 1777888795 | 20.56° C | 65% | 1011.5 hPa | 0 mm | - | - | - |
| 1777887894 | 19.44° C | 63% | 1011.5 hPa | 0 mm | - | - | - |
| 1777886994 | 19.44° C | 63% | 1011.6 hPa | 0 mm | - | - | - |
| 1777886093 | 19.44° C | 62% | 1011.9 hPa | 0 mm | - | - | - |
| 1777885192 | 18.89° C | 62% | 1012.1 hPa | 0 mm | - | - | - |
| 1777884291 | 19.44° C | 63% | 1012.1 hPa | 0 mm | - | - | - |
* Rain latest hour (hover to see other rain measurements)
** Current wind speed in m/s (hover to see current wind gust speed)